Location: Ar Ranvel
(48.3000°N, 4.8833°W)
Time: 14:21:02
(UTC+00:00)

Cosmos 1025 Rocket - Pass Details

Date: 16 June 2021
Orbit: 593 x 619 km, 82.5° (Epoch: 30 July)

Event Time Altitude Azimuth Distance (km) Brightness Sun altitude
Exits shadow 21:09:57 - 143° (SE) 2,130 5.1 -6.6°
Reaches altitude 10° 21:10:25 10° 139° (SE) 1,979 5.0 -6.7°
Maximum altitude 21:13:51 23° 87° (E) 1,326 4.4 -7.1°
Drops below altitude 10° 21:17:17 10° 36° (NE) 1,983 5.8 -7.4°
Sets 21:19:52 0° 22° (NNE) 2,889 6.9 -7.7°
